Maxwell AFB, AL

4:45 AM CST on January 17, 2018 (GMT -0600)
Maxwell Air Force Base

Weather History for KMXF - January, 2018

Change the Weather History Date:

Sunday, January 14, 2018

  Actual Average Record
Temperature  
Mean Temperature 34 °F -  
Max Temperature 45 °F 56 °F 77 °F (2007)
Min Temperature 22 °F 36 °F 18 °F (2011)
Degree Days  
Heating Degree Days 32    
Moisture  
Dew Point 19 °F    
Average Humidity 61    
Maximum Humidity 82    
Minimum Humidity 31    
Precipitation  
Precipitation 0.00 in - - ()
Sea Level Pressure  
Sea Level Pressure 30.52 in    
Wind  
Wind Speed 5 mph (North)    
Max Wind Speed 9 mph    
Max Gust Speed -    
Visibility 10 miles    
Events      
Averages and records for this station are not official NWS values.
T = Trace of Precipitation, MM = Missing Value Source: NWS Daily Summary

Daily Weather History Graph

Daily Weather History Graph

Search for Another Location

Airport or City:

Trip Planner

Search our weather history database for the weather conditions in past years. The results will help you decide how hot, cold, wet, or windy it might be!

Date:

Astronomy

Jan. 14, 2018 Rise Set
Actual Time 6:47 AM CST 5:02 PM CST
Civil Twilight 6:20 AM CST 5:28 PM CST
Nautical Twilight 5:50 AM CST 5:58 PM CST
Astronomical Twilight 5:20 AM CST 6:28 PM CST
Moon 4:43 AM CST (1/14) 3:18 PM CST (1/14)
Length of Visible Light 11h 08m
Length of Day
10h 14m
Waning Crescent, 5% of the Moon is Illuminated
Jan 14
Waning Crescent
Jan 16
New
Jan 24
First Quarter
Jan 31
Full
Feb 7
Last Quarter

Hourly Weather History & Observations

Time (CST) Temp. Windchill Dew Point Humidity Pressure Visibility Wind Dir Wind Speed Gust Speed Precip Events Conditions
12:56 AM 25.5 °F 16.2 °F 16.2 °F 68% 30.52 in 10.0 mi NNW 9.2 mph - N/A   Clear
1:56 AM 24.8 °F 17.9 °F 16.3 °F 70% 30.52 in 10.0 mi North 5.8 mph - N/A   Clear
2:56 AM 23.7 °F 15.6 °F 16.3 °F 73% 30.52 in 10.0 mi NNW 6.9 mph - N/A   Clear
3:56 AM 23.2 °F 15.0 °F 16.2 °F 75% 30.51 in 10.0 mi North 6.9 mph - N/A   Clear
4:56 AM 22.8 °F 15.5 °F 16.0 °F 75% 30.53 in 10.0 mi North 5.8 mph - N/A   Clear
5:56 AM 22.5 °F 14.1 °F 16.0 °F 76% 30.55 in 10.0 mi North 6.9 mph - N/A   Clear
6:56 AM 22.1 °F 12.8 °F 16.0 °F 77% 30.57 in 10.0 mi North 8.1 mph - N/A   Clear
7:56 AM 25.0 °F 15.5 °F 16.0 °F 69% 30.57 in 10.0 mi NNE 9.2 mph - N/A   Clear
8:56 AM 28.2 °F 21.0 °F 15.3 °F 58% 30.59 in 10.0 mi NNE 6.9 mph - N/A   Clear
9:56 AM 30.9 °F 26.2 °F 14.9 °F 52% 30.60 in 10.0 mi North 4.6 mph - N/A   Clear
10:56 AM 34.0 °F 29.8 °F 14.4 °F 45% 30.58 in 10.0 mi North 4.6 mph - N/A   Clear
11:56 AM 37.9 °F 34.4 °F 14.0 °F 38% 30.54 in 10.0 mi NNE 4.6 mph - N/A   Clear
12:56 PM 40.8 °F 37.8 °F 15.3 °F 35% 30.51 in 10.0 mi North 4.6 mph - N/A   Clear
1:56 PM 43.2 °F - 15.3 °F 32% 30.48 in 10.0 mi Calm Calm - N/A   Clear
2:56 PM 44.6 °F 41.4 °F 15.8 °F 31% 30.48 in 10.0 mi NE 5.8 mph - N/A   Clear
3:56 PM 45.0 °F - 16.2 °F 32% 30.48 in 10.0 mi Calm Calm - N/A   Clear
4:56 PM 42.8 °F - 17.1 °F 36% 30.48 in 10.0 mi Calm Calm - N/A   Clear
5:56 PM 36.7 °F - 23.7 °F 59% 30.48 in 10.0 mi Calm Calm - N/A   Clear
6:56 PM 32.9 °F - 24.8 °F 72% 30.48 in 10.0 mi Calm Calm - N/A   Clear
7:56 PM 32.9 °F - 25.5 °F 74% 30.50 in 10.0 mi Calm Calm - N/A   Clear
8:56 PM 33.1 °F - 27.3 °F 79% 30.49 in 10.0 mi Calm Calm - N/A   Partly Cloudy
9:56 PM 33.8 °F - 28.0 °F 79% 30.50 in 10.0 mi Calm Calm - N/A   Mostly Cloudy
10:56 PM 31.8 °F - 27.0 °F 82% 30.48 in 10.0 mi Calm Calm - N/A   Scattered Clouds
11:56 PM 35.1 °F - 29.1 °F 79% 30.45 in 10.0 mi Calm Calm - N/A   Overcast